Regional Weather Roundup
Issued by NWS

Home | Current Version | Previous Version | Graphics & Text | Print | Product List | Glossary On
Versions: 1 2 3 4 5 6 7 8 9 10 11 12 13 14 15 16 17 18 19 20 21 22 23 24 25 26 27 28 29 30 31 32 33 34 35 36 37 38 39 40 41 42 43 44 45 46 47 48 49 50
000
ASUS43 KOAX 271710
RWRNE

WEATHER ROUNDUP FOR NEBRASKA
NATIONAL WEATHER SERVICE OMAHA NE
1100 AM CST TUE JAN 27 2015

NOTES: SATELLITE DATA IS BEING USED TO AUGMENT CLOUD COVER ABOVE
       12000 FEET.
       "FAIR" INDICATES FEW OR NO CLOUDS BELOW 12,000 FEET WITH NO
       SIGNIFICANT WEATHER AND/OR OBSTRUCTIONS TO VISIBILITY.

  * THESE STATIONS DO NOT REPORT WEATHER SUCH AS RAIN...SNOW OR FOG.

NEZ001>004-019>022-054>056-271800-
NEBRASKA PANHANDLE

CITY           SKY/WX    TMP DP  RH WIND       PRES   REMARKS
SCOTTSBLUFF      N/A    N/A N/A N/A MISG      30.08S
ALLIANCE       SUNNY     51  33  50 W8        30.06S
CHADRON        SUNNY     55  30  38 SW6       30.04S
KIMBALL        SUNNY     58  25  28 W8        30.11S
SIDNEY         SUNNY     59  27  29 W7        30.11S
$$

NEZ057>060-069>072-079>082-271800-
SOUTHWEST NEBRASKA

CITY           SKY/WX    TMP DP  RH WIND       PRES   REMARKS
NORTH PLATTE   SUNNY     49  32  52 W9        30.04F
IMPERIAL       SUNNY     55  30  38 W12       30.06F
LEXINGTON      SUNNY     47  33  57 W3        30.04S
MCCOOK         SUNNY     52  31  44 W15       30.05F
OGALLALA       SUNNY     49  35  59 W8        30.06S
$$

NEZ005>010-023>029-035>040-094-271800-
NORTH CENTRAL NEBRASKA

CITY           SKY/WX    TMP DP  RH WIND       PRES   REMARKS
VALENTINE      SUNNY     54  32  43 W10       29.98S
AINSWORTH      SUNNY     54  33  44 W7        29.98S
BROKEN BOW     SUNNY     49  34  56 S3        30.02R
O`NEILL        SUNNY     47  35  64 S14       30.02S
ORD            SUNNY     41  32  70 SE6       30.02S
THEDFORD       SUNNY     55  34  44 W8        30.02R
$$

NEZ041-046>049-061>064-073>077-083>087-271800-
SOUTH CENTRAL NEBRASKA

CITY           SKY/WX    TMP DP  RH WIND       PRES   REMARKS
GRAND ISLAND   SUNNY     48  32  53 S14       30.07R
AURORA         SUNNY     48  34  57 S10       30.07S
HASTINGS       SUNNY     51  33  50 S10       30.05R
HEBRON         SUNNY     50  32  49 SE13      30.09F
HOLDREGE       SUNNY     50  31  49 W7        30.04S
KEARNEY *      SUNNY     46  32  57 S5        30.05R
YORK           SUNNY     48  34  57 SE14      30.08F
$$

NEZ011>018-030>034-042>045-271800-
NORTHEAST NEBRASKA

CITY           SKY/WX    TMP DP  RH WIND       PRES   REMARKS
NORFOLK        SUNNY     45  35  68 SE16      30.07S
ALBION         SUNNY     44  33  65 SE12      30.06S
BLAIR          SUNNY     43  33  68 SE10      30.13S
COLUMBUS *     SUNNY     45  34  65 SE12      30.11S
FREMONT        SUNNY     44  35  69 SE10      30.13S
TEKAMAH        SUNNY     41  35  79 SE13      30.14S
WAYNE          SUNNY     42  35  75 SE15      30.10F
$$

NEZ050>053-065>068-078-088>093-271800-
SOUTHEAST NEBRASKA

CITY           SKY/WX    TMP DP  RH WIND       PRES   REMARKS
LINCOLN        SUNNY     46  34  62 SE7       30.14R
OMAHA EPPLEY   MOSUNNY   42  33  70 SE9       30.15S
BEATRICE       SUNNY     47  34  61 SE9       30.12S
FALLS CITY     SUNNY     44  33  65 SE7       30.16R
NEBRASKA CITY  SUNNY     43  31  62 SE8       30.15S
PLATTSMOUTH    SUNNY     43  33  67 SE7       30.15R
$$

NEZ044-045-051>053-067-271800-
OMAHA AREA

CITY           SKY/WX    TMP DP  RH WIND       PRES   REMARKS
OMAHA EPPLEY   MOSUNNY   42  33  70 SE9       30.15S
BLAIR          SUNNY     43  33  68 SE10      30.13S
FREMONT        SUNNY     44  35  69 SE10      30.13S
MILLARD        SUNNY     43  34  71 SE10      30.14S
OFFUTT AFB     SUNNY     43  34  69 SE8       30.14S
PLATTSMOUTH    SUNNY     43  33  67 SE7       30.15R
WAHOO          FAIR      44  33  64 SE14      30.13S
$$



USA.gov is the U.S. government's official web portal to all federal, state and local government web resources and services.